UKV137 EGLL-EGPD

Flight info

Callsign UKV137
Flight time 1h 2m
Altitude 38000
Route ULTIB T420 AKUPA UY250 KEFTE DCT AGPED DCT MADAD P18 EPCAN
Aircraft A320/M-SDE3FGHIRWY/LB1

Departure

Time 2026-05-08 08:52
Airport London Heathrow Airport (EGLL)

Arrival

Time 2026-05-08 09:54
Airport Aberdeen International Airport (EGPD)
Time Latitude Longitude Altitude Speed Heading
2026-05-08 08:15 51.47098 -0.44422 88 ft 0 kts 90°
2026-05-08 08:40 51.47098 -0.44455 87 ft 4 kts 90°
2026-05-08 08:40 51.47098 -0.44490 87 ft 4 kts 91°
2026-05-08 08:40 51.47102 -0.44531 87 ft 4 kts 121°
2026-05-08 08:40 51.47120 -0.44558 89 ft 4 kts 172°
2026-05-08 08:41 51.47133 -0.44559 88 ft 0 kts 180°
2026-05-08 08:43 51.47132 -0.44559 88 ft 1 kts 180°
2026-05-08 08:44 51.47078 -0.44559 87 ft 10 kts 180°
2026-05-08 08:44 51.47011 -0.44559 87 ft 9 kts 180°
2026-05-08 08:44 51.46952 -0.44558 87 ft 8 kts 180°
2026-05-08 08:44 51.46866 -0.44558 87 ft 19 kts 180°
2026-05-08 08:45 51.46733 -0.44555 87 ft 13 kts 177°
2026-05-08 08:45 51.46677 -0.44559 88 ft 2 kts 211°
2026-05-08 08:45 51.46663 -0.44633 87 ft 14 kts 271°
2026-05-08 08:45 51.46665 -0.44791 87 ft 14 kts 269°
2026-05-08 08:46 51.46664 -0.44936 87 ft 13 kts 269°
2026-05-08 08:46 51.46662 -0.45136 87 ft 19 kts 269°
2026-05-08 08:46 51.46663 -0.45338 87 ft 17 kts 269°
2026-05-08 08:46 51.46661 -0.45524 87 ft 16 kts 270°
2026-05-08 08:47 51.46661 -0.45696 87 ft 15 kts 270°
2026-05-08 08:47 51.46661 -0.45883 87 ft 22 kts 270°
2026-05-08 08:47 51.46661 -0.46136 87 ft 22 kts 269°
2026-05-08 08:47 51.46659 -0.46377 89 ft 21 kts 270°
2026-05-08 08:48 51.46657 -0.46599 89 ft 19 kts 269°
2026-05-08 08:48 51.46657 -0.46806 88 ft 18 kts 269°
2026-05-08 08:48 51.46657 -0.46996 87 ft 16 kts 270°
2026-05-08 08:48 51.46657 -0.47185 88 ft 22 kts 270°
2026-05-08 08:49 51.46656 -0.47486 88 ft 28 kts 269°
2026-05-08 08:49 51.46653 -0.47805 87 ft 29 kts 270°
2026-05-08 08:49 51.46652 -0.48119 87 ft 22 kts 270°
2026-05-08 08:49 51.46651 -0.48360 87 ft 21 kts 270°
2026-05-08 08:50 51.46650 -0.48574 87 ft 14 kts 269°
2026-05-08 08:50 51.46646 -0.48725 89 ft 13 kts 257°
2026-05-08 08:50 51.46577 -0.48786 91 ft 11 kts 199°
2026-05-08 08:50 51.46510 -0.48779 91 ft 9 kts 146°
2026-05-08 08:51 51.46478 -0.48705 89 ft 8 kts 97°
2026-05-08 08:51 51.46477 -0.48608 88 ft 11 kts 90°
2026-05-08 08:51 51.46478 -0.48275 89 ft 63 kts 90°
2026-05-08 08:51 51.46481 -0.47211 87 ft 125 kts 89°
2026-05-08 08:52 51.46490 -0.45564 234 ft 160 kts 89°
2026-05-08 08:52 51.46504 -0.43843 1089 ft 153 kts 91°
2026-05-08 08:52 51.46548 -0.42100 1733 ft 165 kts 85°
2026-05-08 08:52 51.46923 -0.40458 2058 ft 190 kts 59°
2026-05-08 08:53 51.47815 -0.38704 2417 ft 216 kts 52°
2026-05-08 08:53 51.48833 -0.36751 2883 ft 240 kts 52°
2026-05-08 08:53 51.49950 -0.34598 3497 ft 259 kts 52°
2026-05-08 08:53 51.51124 -0.32349 4430 ft 265 kts 52°
2026-05-08 08:54 51.52235 -0.29974 5382 ft 268 kts 64°
2026-05-08 08:54 51.52915 -0.27177 6329 ft 271 kts 71°
2026-05-08 08:54 51.53870 -0.24536 7203 ft 280 kts 48°
2026-05-08 08:54 51.55492 -0.22778 8047 ft 287 kts 19°
2026-05-08 08:55 51.57473 -0.22384 8936 ft 290 kts 355°
2026-05-08 08:55 51.59482 -0.22752 9908 ft 292 kts 348°
2026-05-08 08:55 51.61497 -0.23479 10496 ft 306 kts 337°
2026-05-08 08:55 51.62798 -0.24471 10699 ft 320 kts 327°
2026-05-08 08:56 51.64769 -0.26502 11105 ft 337 kts 325°
2026-05-08 08:56 51.66777 -0.28554 11796 ft 344 kts 326°
2026-05-08 08:56 51.68825 -0.30608 12581 ft 349 kts 326°
2026-05-08 08:56 51.70912 -0.32661 13352 ft 354 kts 327°
2026-05-08 08:57 51.73037 -0.34714 14082 ft 358 kts 327°
2026-05-08 08:57 51.75194 -0.36780 14755 ft 363 kts 327°
2026-05-08 08:57 51.77379 -0.38877 15429 ft 367 kts 327°
2026-05-08 08:57 51.79585 -0.41004 16098 ft 371 kts 327°
2026-05-08 08:58 51.81814 -0.43156 16769 ft 375 kts 327°
2026-05-08 08:58 51.84036 -0.45304 17417 ft 379 kts 327°
2026-05-08 08:58 51.86220 -0.47421 18045 ft 383 kts 327°
2026-05-08 08:58 51.88515 -0.49649 18654 ft 387 kts 327°
2026-05-08 08:59 51.90832 -0.51906 19219 ft 390 kts 327°
2026-05-08 08:59 51.93164 -0.54185 19778 ft 393 kts 327°
2026-05-08 08:59 51.95519 -0.56487 20360 ft 396 kts 327°
2026-05-08 08:59 51.97887 -0.58805 20924 ft 399 kts 327°
2026-05-08 09:00 51.99465 -0.60351 21287 ft 401 kts 327°
2026-05-08 09:00 52.01860 -0.62695 21836 ft 404 kts 327°
2026-05-08 09:00 52.04274 -0.65056 22370 ft 407 kts 327°
2026-05-08 09:00 52.06707 -0.67437 22902 ft 409 kts 327°
2026-05-08 09:01 52.09156 -0.69843 23422 ft 412 kts 327°
2026-05-08 09:01 52.11621 -0.72275 23889 ft 415 kts 327°
2026-05-08 09:01 52.14098 -0.74721 24351 ft 417 kts 327°
2026-05-08 09:01 52.16586 -0.77175 24808 ft 418 kts 327°
2026-05-08 09:02 52.19079 -0.79635 25273 ft 419 kts 327°
2026-05-08 09:02 52.21571 -0.82097 25739 ft 420 kts 327°
2026-05-08 09:02 52.24075 -0.84575 26199 ft 421 kts 328°
2026-05-08 09:02 52.26580 -0.87056 26642 ft 422 kts 328°
2026-05-08 09:03 52.29091 -0.89552 27089 ft 423 kts 328°
2026-05-08 09:03 52.31609 -0.92057 27534 ft 424 kts 328°
2026-05-08 09:03 52.34135 -0.94569 27959 ft 425 kts 328°
2026-05-08 09:03 52.36666 -0.97088 28384 ft 426 kts 328°
2026-05-08 09:04 52.39205 -0.99626 28803 ft 427 kts 328°
2026-05-08 09:04 52.41744 -1.02170 29206 ft 428 kts 328°
2026-05-08 09:04 52.44292 -1.04712 29568 ft 429 kts 330°
2026-05-08 09:04 52.46991 -1.06821 29951 ft 431 kts 339°
2026-05-08 09:05 52.48556 -1.07619 30138 ft 432 kts 345°
2026-05-08 09:05 52.51482 -1.08474 30421 ft 434 kts 353°
2026-05-08 09:06 52.54516 -1.08635 30689 ft 438 kts
2026-05-08 09:06 52.57568 -1.08452 31010 ft 439 kts
2026-05-08 09:06 52.60608 -1.08245 31403 ft 438 kts
2026-05-08 09:06 52.63654 -1.08018 31793 ft 437 kts
2026-05-08 09:07 52.66683 -1.07781 32177 ft 436 kts
2026-05-08 09:07 52.69714 -1.07540 32554 ft 435 kts 360°
2026-05-08 09:07 52.72738 -1.07336 32973 ft 434 kts 356°
2026-05-08 09:07 52.75732 -1.07697 33346 ft 430 kts 348°
2026-05-08 09:08 52.78670 -1.08572 33724 ft 428 kts 346°
2026-05-08 09:08 52.81503 -1.09440 34113 ft 427 kts 346°
2026-05-08 09:08 52.84425 -1.10335 34430 ft 427 kts 346°
2026-05-08 09:08 52.87353 -1.11229 34701 ft 428 kts 346°
2026-05-08 09:09 52.90287 -1.12124 34954 ft 429 kts 346°
2026-05-08 09:09 52.93229 -1.13021 35193 ft 430 kts 346°
2026-05-08 09:09 52.96175 -1.13922 35422 ft 432 kts 346°
2026-05-08 09:09 52.99133 -1.14826 35655 ft 433 kts 346°
2026-05-08 09:10 53.02038 -1.15713 35864 ft 434 kts 347°
2026-05-08 09:10 53.05012 -1.16622 36087 ft 436 kts 347°
2026-05-08 09:10 53.07956 -1.17527 36302 ft 437 kts 347°
2026-05-08 09:10 53.10951 -1.18448 36521 ft 438 kts 347°
2026-05-08 09:11 53.13950 -1.19375 36730 ft 439 kts 347°
2026-05-08 09:11 53.16957 -1.20306 36933 ft 440 kts 347°
2026-05-08 09:11 53.19971 -1.21234 37141 ft 441 kts 347°
2026-05-08 09:11 53.22995 -1.22165 37342 ft 442 kts 347°
2026-05-08 09:12 53.26029 -1.23102 37540 ft 443 kts 347°
2026-05-08 09:12 53.29059 -1.24040 37742 ft 444 kts 347°
2026-05-08 09:12 53.32108 -1.24990 37934 ft 445 kts 347°
2026-05-08 09:12 53.35167 -1.25948 37741 ft 447 kts 347°
2026-05-08 09:13 53.38222 -1.26909 37287 ft 446 kts 346°
2026-05-08 09:13 53.41261 -1.27845 37060 ft 443 kts 349°
2026-05-08 09:13 53.47428 -1.28672 37099 ft 445 kts 353°
2026-05-08 09:14 53.53614 -1.29430 37157 ft 445 kts 353°
2026-05-08 09:14 53.56634 -1.30092 37421 ft 441 kts 344°
2026-05-08 09:14 53.59562 -1.31536 37694 ft 437 kts 335°
2026-05-08 09:15 53.62088 -1.33519 37947 ft 433 kts 327°
2026-05-08 09:15 53.64677 -1.36118 38083 ft 435 kts 326°
2026-05-08 09:15 53.69899 -1.41413 38098 ft 439 kts 326°
2026-05-08 09:16 53.75149 -1.46744 38102 ft 440 kts 326°
2026-05-08 09:16 53.80394 -1.52080 38111 ft 440 kts 326°
2026-05-08 09:17 53.85636 -1.57443 38111 ft 440 kts 326°
2026-05-08 09:17 53.90875 -1.62822 38112 ft 440 kts 326°
2026-05-08 09:18 53.96069 -1.68176 38110 ft 440 kts 326°
2026-05-08 09:18 54.01452 -1.73151 38105 ft 444 kts 336°
2026-05-08 09:19 54.07535 -1.75326 38097 ft 451 kts 351°
2026-05-08 09:19 54.13783 -1.76460 38081 ft 452 kts 350°
2026-05-08 09:20 54.20043 -1.77619 38085 ft 452 kts 350°
2026-05-08 09:20 54.25967 -1.78709 38084 ft 453 kts 350°
2026-05-08 09:21 54.32234 -1.79852 38082 ft 453 kts 350°
2026-05-08 09:23 54.54151 -1.83916 38092 ft 454 kts 350°
2026-05-08 09:23 54.60421 -1.85095 38087 ft 454 kts 350°
2026-05-08 09:24 54.66704 -1.86277 38087 ft 454 kts 350°
2026-05-08 09:24 54.72993 -1.87467 38077 ft 454 kts 350°
2026-05-08 09:25 54.79279 -1.88653 38078 ft 455 kts 350°
2026-05-08 09:25 54.85573 -1.89837 38082 ft 455 kts 350°
2026-05-08 09:26 54.91868 -1.91030 38083 ft 455 kts 350°
2026-05-08 09:26 54.98163 -1.92235 38084 ft 455 kts 350°
2026-05-08 09:27 55.04469 -1.93446 38079 ft 456 kts 350°
2026-05-08 09:27 55.10743 -1.94586 38088 ft 458 kts 354°
2026-05-08 09:28 55.17133 -1.93611 38090 ft 464 kts
2026-05-08 09:28 55.23526 -1.91890 38090 ft 465 kts
2026-05-08 09:29 55.29924 -1.90182 38092 ft 466 kts
2026-05-08 09:29 55.36342 -1.88451 38091 ft 466 kts
2026-05-08 09:30 55.42761 -1.86723 38091 ft 467 kts
2026-05-08 09:30 55.49197 -1.84979 38089 ft 468 kts
2026-05-08 09:31 55.55632 -1.83224 38093 ft 468 kts
2026-05-08 09:31 55.62034 -1.81472 38097 ft 468 kts
2026-05-08 09:32 55.68479 -1.79703 38102 ft 469 kts
2026-05-08 09:32 55.74940 -1.77928 37913 ft 470 kts
2026-05-08 09:32 55.78165 -1.77039 37642 ft 469 kts
2026-05-08 09:33 55.81385 -1.76153 37100 ft 469 kts
2026-05-08 09:33 55.84606 -1.75264 36395 ft 469 kts
2026-05-08 09:33 55.87847 -1.74386 35536 ft 471 kts
2026-05-08 09:33 55.91114 -1.74048 34603 ft 469 kts 353°
2026-05-08 09:34 55.94307 -1.74538 33770 ft 453 kts 345°
2026-05-08 09:34 55.97350 -1.75612 32859 ft 441 kts 343°
2026-05-08 09:34 56.00360 -1.76729 31923 ft 444 kts 343°
2026-05-08 09:34 56.03399 -1.77864 30980 ft 448 kts 343°
2026-05-08 09:35 56.06454 -1.79002 30239 ft 448 kts 343°
2026-05-08 09:35 56.09487 -1.80121 29614 ft 443 kts 343°
2026-05-08 09:35 56.12486 -1.81225 29001 ft 438 kts 343°
2026-05-08 09:35 56.15457 -1.82321 28405 ft 433 kts 343°
2026-05-08 09:36 56.18393 -1.83412 27808 ft 429 kts 343°
2026-05-08 09:36 56.21260 -1.84477 27225 ft 426 kts 343°
2026-05-08 09:36 56.24163 -1.85556 26624 ft 422 kts 343°
2026-05-08 09:36 56.27028 -1.86631 26037 ft 419 kts 343°
2026-05-08 09:37 56.29877 -1.87705 25455 ft 417 kts 343°
2026-05-08 09:37 56.32708 -1.88774 24883 ft 414 kts 343°
2026-05-08 09:37 56.35520 -1.89833 24316 ft 412 kts 343°
2026-05-08 09:37 56.38316 -1.90883 23775 ft 410 kts 343°
2026-05-08 09:38 56.41100 -1.91930 23192 ft 407 kts 343°
2026-05-08 09:38 56.43854 -1.92967 22679 ft 402 kts 343°
2026-05-08 09:38 56.46578 -1.93993 22197 ft 397 kts 343°
2026-05-08 09:38 56.49269 -1.95008 21721 ft 393 kts 343°
2026-05-08 09:39 56.51933 -1.96022 21259 ft 389 kts 343°
2026-05-08 09:39 56.54570 -1.97027 20814 ft 385 kts 343°
2026-05-08 09:39 56.57184 -1.98022 20345 ft 382 kts 343°
2026-05-08 09:39 56.59780 -1.99008 19884 ft 380 kts 343°
2026-05-08 09:40 56.62357 -1.99988 19416 ft 378 kts 343°
2026-05-08 09:40 56.64924 -2.00965 18936 ft 376 kts 343°
2026-05-08 09:40 56.67445 -2.01930 18462 ft 375 kts 343°
2026-05-08 09:40 56.69996 -2.02910 17930 ft 374 kts 343°
2026-05-08 09:41 56.72536 -2.03886 17428 ft 372 kts 343°
2026-05-08 09:41 56.75056 -2.04852 16939 ft 370 kts 343°
2026-05-08 09:41 56.77569 -2.05818 16447 ft 368 kts 344°
2026-05-08 09:41 56.80064 -2.06780 15962 ft 366 kts 344°
2026-05-08 09:42 56.82551 -2.07742 15477 ft 364 kts 344°
2026-05-08 09:42 56.85029 -2.08702 14975 ft 363 kts 344°
2026-05-08 09:42 56.87357 -2.09606 14509 ft 362 kts 344°
2026-05-08 09:42 56.89636 -2.10303 14056 ft 363 kts 353°
2026-05-08 09:43 56.92166 -2.10173 13514 ft 365 kts
2026-05-08 09:43 56.94631 -2.09066 12990 ft 366 kts 18°
2026-05-08 09:43 56.96920 -2.07042 12476 ft 365 kts 30°
2026-05-08 09:43 56.99105 -2.04702 11948 ft 363 kts 30°
2026-05-08 09:44 57.01276 -2.02380 11428 ft 361 kts 30°
2026-05-08 09:44 57.03442 -2.00064 10884 ft 360 kts 30°
2026-05-08 09:44 57.05600 -1.97758 10478 ft 354 kts 30°
2026-05-08 09:44 57.07722 -1.95637 10359 ft 340 kts 22°
2026-05-08 09:45 57.09940 -1.94438 10222 ft 326 kts
2026-05-08 09:45 57.12146 -1.94241 10096 ft 312 kts 353°
2026-05-08 09:45 57.14241 -1.94918 9909 ft 301 kts 341°
2026-05-08 09:45 57.16277 -1.95939 9425 ft 304 kts 341°
2026-05-08 09:46 57.18300 -1.96937 8790 ft 299 kts 341°
2026-05-08 09:46 57.20291 -1.97911 8228 ft 293 kts 340°
2026-05-08 09:46 57.22221 -1.98856 7670 ft 289 kts 340°
2026-05-08 09:46 57.24157 -1.99805 7144 ft 289 kts 340°
2026-05-08 09:47 57.26104 -2.00764 6750 ft 288 kts 340°
2026-05-08 09:47 57.28042 -2.01720 6269 ft 287 kts 340°
2026-05-08 09:47 57.29929 -2.02648 5936 ft 270 kts 340°
2026-05-08 09:47 57.31674 -2.03614 5655 ft 251 kts 331°
2026-05-08 09:48 57.33104 -2.05208 5310 ft 233 kts 314°
2026-05-08 09:48 57.34168 -2.07379 4835 ft 224 kts 298°
2026-05-08 09:48 57.34847 -2.09916 4320 ft 218 kts 284°
2026-05-08 09:48 57.35191 -2.12637 3856 ft 218 kts 278°
2026-05-08 09:49 57.35495 -2.15381 3640 ft 218 kts 278°
2026-05-08 09:49 57.35805 -2.18134 3516 ft 219 kts 278°
2026-05-08 09:49 57.36012 -2.19962 3437 ft 219 kts 278°
2026-05-08 09:49 57.36328 -2.22723 3333 ft 219 kts 278°
2026-05-08 09:50 57.36454 -2.25432 3229 ft 206 kts 258°
2026-05-08 09:50 57.35932 -2.27789 3137 ft 194 kts 232°
2026-05-08 09:50 57.34921 -2.29344 3034 ft 189 kts 205°
2026-05-08 09:50 57.33647 -2.29650 2923 ft 184 kts 174°
2026-05-08 09:51 57.32457 -2.28864 2690 ft 178 kts 162°
2026-05-08 09:51 57.31353 -2.28041 2483 ft 164 kts 163°
2026-05-08 09:51 57.30353 -2.27297 2258 ft 147 kts 163°
2026-05-08 09:51 57.29439 -2.26620 2067 ft 137 kts 163°
2026-05-08 09:52 57.28568 -2.25975 1878 ft 133 kts 163°
2026-05-08 09:52 57.27714 -2.25343 1703 ft 131 kts 163°
2026-05-08 09:52 57.26867 -2.24717 1521 ft 132 kts 163°
2026-05-08 09:52 57.26030 -2.24097 1337 ft 131 kts 164°
2026-05-08 09:53 57.25186 -2.23473 1146 ft 131 kts 164°
2026-05-08 09:53 57.24342 -2.22847 963 ft 131 kts 163°
2026-05-08 09:53 57.23500 -2.22210 768 ft 131 kts 163°
2026-05-08 09:53 57.22659 -2.21583 599 ft 130 kts 167°
2026-05-08 09:54 57.21817 -2.20964 420 ft 131 kts 163°
2026-05-08 09:54 57.20969 -2.20347 255 ft 131 kts 162°
2026-05-08 09:54 57.20222 -2.19814 215 ft 81 kts 157°
2026-05-08 09:54 57.19912 -2.19580 220 ft 36 kts 158°
2026-05-08 09:55 57.19695 -2.19414 224 ft 32 kts 157°
2026-05-08 09:55 57.19516 -2.19280 221 ft 16 kts 156°
2026-05-08 09:55 57.19428 -2.19290 220 ft 14 kts 238°
2026-05-08 09:55 57.19472 -2.19436 220 ft 15 kts 318°
2026-05-08 09:56 57.19549 -2.19563 223 ft 14 kts 320°
2026-05-08 09:56 57.19625 -2.19677 224 ft 14 kts 327°
2026-05-08 09:56 57.19717 -2.19745 222 ft 14 kts 339°
2026-05-08 09:56 57.19807 -2.19813 219 ft 14 kts 337°
2026-05-08 09:57 57.19956 -2.20021 221 ft 12 kts 315°
2026-05-08 09:57 57.20004 -2.20079 221 ft 7 kts 334°
2026-05-08 09:57 57.20003 -2.20141 221 ft 6 kts 243°
2026-05-08 09:58 57.19993 -2.20183 223 ft 3 kts 248°
2026-05-08 09:58 57.19989 -2.20200 222 ft 0 kts 248°